Total_Precipitation_Accumulation
0.18 0.20 0.29 0.42 0.40 0.27 0.11 0.03 0.02 0.02 0.03 0.04 0.06 0.07 0.06 0.07 0.10 0.21 0.18 0.13 0.11 0.14 0.23 0.42 0.62 0.76 0.75 0.68 0.58 0.49 0.44 0.40 0.40 0.41 0.42 0.42 0.37 0.36 0.37 0.39 0.42 0.44 0.44 0.45 0.52 0.50 0.48 0.43 0.34
0.21 0.31 0.50 0.59 0.44 0.27 0.11 0.03 0.02 0.02 0.04 0.04 0.06 0.08 0.08 0.09 0.09 0.14 0.20 0.19 0.16 0.19 0.28 0.43 0.63 0.81 0.83 0.77 0.68 0.63 0.63 0.55 0.50 0.50 0.51 0.52 0.46 0.44 0.46 0.45 0.45 0.45 0.43 0.43 0.42 0.36 0.33 0.25 0.21
0.35 0.50 0.69 0.66 0.48 0.26 0.11 0.04 0.04 0.04 0.05 0.07 0.08 0.09 0.10 0.13 0.14 0.17 0.24 0.30 0.30 0.31 0.39 0.56 0.71 0.86 0.91 0.83 0.80 0.76 0.78 0.74 0.67 0.61 0.62 0.63 0.59 0.51 0.50 0.47 0.46 0.41 0.39 0.36 0.34 0.27 0.20 0.17 0.14
0.58 0.75 0.78 0.66 0.47 0.23 0.10 0.06 0.06 0.07 0.07 0.08 0.10 0.16 0.17 0.16 0.19 0.22 0.32 0.40 0.43 0.45 0.52 0.70 0.83 0.94 0.98 0.89 0.85 0.86 0.87 0.86 0.81 0.70 0.68 0.70 0.71 0.64 0.52 0.48 0.43 0.37 0.34 0.32 0.28 0.23 0.18 0.15 0.14
0.84 0.96 0.81 0.62 0.41 0.21 0.10 0.09 0.10 0.11 0.10 0.11 0.14 0.20 0.24 0.21 0.24 0.35 0.50 0.58 0.60 0.66 0.73 0.85 1.02 1.16 1.20 1.11 1.02 0.96 0.92 0.90 0.90 0.80 0.74 0.74 0.77 0.76 0.60 0.48 0.40 0.33 0.30 0.27 0.24 0.20 0.19 0.16 0.15
1.09 1.10 0.86 0.55 0.33 0.20 0.10 0.10 0.11 0.13 0.13 0.15 0.21 0.27 0.35 0.31 0.35 0.46 0.67 0.77 0.79 0.86 0.92 1.06 1.23 1.30 1.38 1.30 1.18 1.13 1.06 0.97 0.94 0.91 0.87 0.81 0.81 0.83 0.68 0.50 0.41 0.36 0.30 0.26 0.25 0.23 0.20 0.18 0.17
1.10 1.11 0.82 0.43 0.28 0.24 0.13 0.12 0.15 0.16 0.16 0.18 0.24 0.34 0.45 0.49 0.59 0.65 0.82 1.00 1.07 1.13 1.22 1.26 1.34 1.39 1.52 1.38 1.21 1.19 1.18 1.12 1.04 1.00 0.95 0.84 0.80 0.77 0.67 0.50 0.43 0.39 0.34 0.29 0.27 0.27 0.24 0.21 0.20
1.09 1.20 0.82 0.42 0.26 0.27 0.18 0.16 0.18 0.20 0.20 0.20 0.29 0.41 0.51 0.59 0.75 0.91 1.06 1.18 1.36 1.42 1.51 1.48 1.46 1.49 1.60 1.54 1.33 1.18 1.10 1.10 1.12 1.06 0.91 0.71 0.65 0.69 0.64 0.47 0.42 0.39 0.35 0.31 0.29 0.28 0.27 0.25 0.20
1.10 1.19 0.79 0.44 0.32 0.29 0.24 0.26 0.24 0.23 0.30 0.33 0.38 0.45 0.57 0.72 0.95 1.19 1.36 1.44 1.61 1.73 1.75 1.74 1.64 1.55 1.60 1.62 1.41 1.31 1.21 1.16 1.15 1.12 0.87 0.71 0.69 0.65 0.59 0.41 0.33 0.36 0.34 0.30 0.30 0.32 0.31 0.27 0.21
1.12 0.97 0.59 0.39 0.36 0.35 0.30 0.32 0.33 0.38 0.43 0.49 0.56 0.63 0.77 1.00 1.30 1.45 1.56 1.61 1.69 1.83 1.88 1.91 1.78 1.72 1.69 1.67 1.58 1.52 1.39 1.29 1.23 1.14 0.98 0.84 0.76 0.72 0.62 0.49 0.34 0.33 0.33 0.33 0.33 0.33 0.36 0.31 0.24
0.81 0.70 0.50 0.40 0.38 0.38 0.39 0.37 0.38 0.47 0.51 0.49 0.57 0.75 1.02 1.30 1.62 1.67 1.82 1.95 1.91 2.03 2.07 2.10 1.96 1.92 1.83 1.74 1.61 1.54 1.42 1.36 1.33 1.30 1.10 0.97 0.90 0.78 0.76 0.68 0.54 0.45 0.34 0.36 0.33 0.35 0.33 0.29 0.26
0.59 0.49 0.46 0.45 0.40 0.43 0.45 0.45 0.48 0.48 0.49 0.49 0.57 0.75 1.09 1.44 1.67 1.74 1.93 2.11 2.21 2.26 2.33 2.28 2.19 2.12 2.00 1.88 1.68 1.47 1.36 1.29 1.26 1.26 1.21 1.07 0.98 0.85 0.75 0.70 0.60 0.52 0.41 0.38 0.36 0.33 0.30 0.28 0.31
0.49 0.41 0.41 0.47 0.48 0.45 0.44 0.44 0.53 0.46 0.46 0.53 0.63 0.86 1.14 1.50 1.83 1.96 2.16 2.29 2.40 2.52 2.52 2.51 2.40 2.22 2.05 1.98 1.86 1.54 1.31 1.17 1.17 1.19 1.16 1.08 0.93 0.79 0.74 0.73 0.70 0.61 0.50 0.45 0.42 0.38 0.33 0.31 0.32
0.40 0.38 0.46 0.53 0.58 0.49 0.48 0.48 0.53 0.51 0.49 0.60 0.73 0.90 1.12 1.48 1.94 2.13 2.37 2.55 2.50 2.70 2.77 2.77 2.59 2.38 2.08 1.92 1.88 1.70 1.43 1.24 1.18 1.14 1.09 1.08 0.96 0.79 0.73 0.70 0.72 0.69 0.64 0.58 0.55 0.49 0.46 0.42 0.39
0.43 0.52 0.57 0.62 0.65 0.53 0.55 0.64 0.57 0.53 0.50 0.58 0.71 0.88 1.08 1.39 1.80 2.09 2.31 2.46 2.63 2.79 2.96 2.96 2.84 2.64 2.25 1.97 1.86 1.76 1.56 1.40 1.31 1.12 1.03 1.01 0.99 0.90 0.81 0.75 0.72 0.72 0.73 0.74 0.72 0.68 0.64 0.56 0.48
0.67 0.80 0.75 0.55 0.60 0.58 0.65 0.70 0.51 0.49 0.53 0.54 0.61 0.78 0.95 1.16 1.53 1.86 2.20 2.39 2.56 2.83 2.97 3.01 2.96 2.83 2.52 2.15 1.98 1.86 1.66 1.50 1.41 1.31 1.17 1.05 1.02 1.01 0.95 0.82 0.74 0.71 0.76 0.79 0.76 0.72 0.68 0.59 0.53
0.92 0.76 0.60 0.46 0.47 0.60 0.60 0.63 0.52 0.49 0.54 0.50 0.51 0.63 0.86 1.03 1.25 1.51 1.88 2.21 2.34 2.64 2.87 3.10 3.00 2.87 2.74 2.47 2.27 2.13 1.90 1.68 1.50 1.36 1.23 1.20 1.15 1.12 1.09 0.89 0.75 0.73 0.73 0.73 0.77 0.75 0.71 0.62 0.55
0.69 0.44 0.40 0.43 0.44 0.50 0.47 0.42 0.47 0.53 0.55 0.50 0.52 0.57 0.73 0.92 1.00 1.21 1.52 1.95 2.14 2.40 2.69 2.89 3.12 3.02 3.05 2.96 2.67 2.42 2.21 1.92 1.66 1.43 1.27 1.22 1.20 1.18 1.20 1.07 0.89 0.85 0.79 0.71 0.70 0.72 0.77 0.75 0.68
0.52 0.42 0.35 0.31 0.35 0.44 0.40 0.35 0.40 0.44 0.51 0.51 0.51 0.54 0.59 0.72 0.83 1.05 1.35 1.71 2.00 2.16 2.44 2.57 2.78 2.96 3.01 2.93 2.63 2.33 2.14 2.06 1.89 1.61 1.43 1.34 1.28 1.22 1.21 1.19 1.07 0.95 0.88 0.79 0.74 0.74 0.75 0.81 0.88
0.66 0.59 0.43 0.32 0.28 0.40 0.41 0.37 0.37 0.40 0.47 0.49 0.50 0.49 0.51 0.56 0.64 0.82 1.17 1.40 1.63 1.86 2.04 2.31 2.38 2.65 2.70 2.62 2.58 2.43 2.35 2.27 2.17 1.95 1.65 1.49 1.44 1.34 1.23 1.18 1.15 1.04 0.97 0.96 0.95 0.92 0.88 0.85 0.90
0.70 0.58 0.48 0.42 0.36 0.44 0.49 0.47 0.37 0.37 0.38 0.37 0.38 0.37 0.43 0.47 0.51 0.66 0.92 1.17 1.31 1.54 1.83 1.97 2.08 2.30 2.55 2.60 2.70 2.79 2.74 2.47 2.21 2.03 1.89 1.71 1.62 1.54 1.39 1.26 1.25 1.21 1.09 1.02 1.05 1.09 1.10 1.09 1.09
0.70 0.42 0.47 0.51 0.63 0.62 0.48 0.60 0.41 0.32 0.31 0.32 0.34 0.31 0.35 0.42 0.45 0.54 0.64 0.85 1.02 1.18 1.53 1.86 2.05 2.18 2.39 2.69 2.66 2.55 2.41 2.21 1.96 1.95 1.98 1.95 1.81 1.71 1.56 1.45 1.38 1.35 1.29 1.20 1.20 1.20 1.25 1.30 1.29
0.63 0.43 0.49 0.58 0.70 0.68 0.43 0.48 0.40 0.26 0.28 0.31 0.33 0.32 0.38 0.49 0.52 0.51 0.54 0.67 0.84 0.97 1.24 1.54 1.82 2.11 2.33 2.46 2.50 2.52 2.31 2.11 2.06 2.00 1.97 1.87 1.77 1.71 1.63 1.56 1.54 1.50 1.46 1.43 1.47 1.44 1.41 1.41 1.41
0.70 0.71 0.76 0.80 1.01 0.98 0.40 0.39 0.37 0.28 0.30 0.32 0.32 0.33 0.39 0.47 0.53 0.51 0.52 0.61 0.76 0.85 1.00 1.27 1.52 1.68 1.93 2.19 2.26 2.29 2.25 2.21 2.16 1.97 1.87 1.87 1.86 1.78 1.67 1.65 1.65 1.65 1.63 1.59 1.57 1.59 1.61 1.59 1.54
1.01 1.38 1.79 1.69 1.41 0.75 0.26 0.30 0.30 0.25 0.32 0.35 0.35 0.37 0.40 0.41 0.43 0.44 0.48 0.56 0.69 0.81 0.91 1.02 1.17 1.29 1.45 1.68 1.83 1.90 2.01 2.10 2.02 1.91 1.74 1.72 1.70 1.65 1.61 1.59 1.64 1.69 1.67 1.67 1.68 1.69 1.66 1.68 1.69
0.98 1.17 1.40 1.14 0.69 0.36 0.22 0.25 0.23 0.24 0.34 0.38 0.37 0.36 0.35 0.40 0.42 0.41 0.40 0.46 0.58 0.69 0.80 0.88 0.95 1.03 1.19 1.34 1.47 1.61 1.74 1.91 1.90 1.86 1.69 1.56 1.51 1.51 1.58 1.52 1.46 1.49 1.57 1.61 1.62 1.62 1.59 1.59 1.58
0.89 0.87 0.76 0.96 0.62 0.36 0.23 0.16 0.15 0.17 0.23 0.31 0.32 0.30 0.30 0.39 0.42 0.39 0.38 0.40 0.50 0.56 0.64 0.73 0.84 0.91 0.99 1.14 1.28 1.40 1.49 1.58 1.64 1.70 1.70 1.56 1.48 1.46 1.47 1.41 1.33 1.27 1.29 1.38 1.47 1.46 1.46 1.46 1.47
0.74 0.70 0.88 1.24 0.98 0.52 0.21 0.12 0.18 0.19 0.20 0.28 0.31 0.34 0.36 0.41 0.40 0.37 0.39 0.43 0.49 0.50 0.53 0.62 0.77 0.81 0.84 0.93 1.04 1.14 1.25 1.40 1.48 1.50 1.49 1.44 1.41 1.41 1.39 1.31 1.22 1.16 1.13 1.14 1.21 1.24 1.23 1.27 1.27
0.68 0.84 0.98 0.99 0.74 0.64 0.40 0.25 0.23 0.24 0.22 0.25 0.30 0.33 0.37 0.41 0.41 0.41 0.45 0.52 0.55 0.51 0.53 0.60 0.68 0.78 0.84 0.86 0.91 0.95 0.97 1.06 1.22 1.33 1.33 1.34 1.32 1.31 1.29 1.24 1.18 1.13 1.07 1.02 1.02 1.01 1.05 1.13 1.14
0.53 0.54 0.73 1.06 0.77 0.54 0.48 0.36 0.24 0.24 0.22 0.23 0.28 0.31 0.34 0.36 0.38 0.43 0.51 0.53 0.55 0.56 0.59 0.63 0.66 0.72 0.82 0.85 0.86 0.90 0.91 0.92 1.01 1.10 1.20 1.27 1.33 1.27 1.23 1.20 1.14 1.09 1.04 1.01 0.98 0.94 0.94 0.99 1.03